Home   Weather   Nuremberg   Past weeks

Flag for Germany Past Weather in Nuremberg, Bavaria, Germany — Yesterday and Last 2 Weeks

Now
12 °F

Snow flurries. Ice fog.


Feels Like: 6 °F
Forecast: 16 / 30 °F
Wind: 3 mph from East

Location: Nuernberg

Current Time: Jan 24, 2017 at 8:34:55 am

Latest Report: Jan 24, 2017 at 8:20 am


Visibility: 2 mi

Pressure: 30.30 "Hg

Humidity: 92%

Dew Point: 10 °F

Location of NurembergLocation

Past Weather in Nuremberg — Graph

°F

Nuremberg Temperature Yesterday

Maximum temperature yesterday: 23 °F (at 2:50 pm)
Minimum temperature yesterday: 7 °F (at 5:20 am)
Average temperature yesterday: 14 °F

High & Low Weather Summary for the Past Weeks

 TemperatureHumidityPressure
High41 °F (Jan 13, 5:50 am)100% (Jan 12, 10:20 pm)30.60 "Hg (Jan 12, 10:20 pm)
Low7 °F (Jan 19, 6:20 am)26% (Jan 20, 1:50 pm)29.27 "Hg (Jan 13, 2:20 am)
Average26 °F80%30.16 "Hg
* Reported Jan 9 7:20 am — Jan 24 7:20 am, Nuremberg, Weather by CustomWeather, © 2017

Note: Actual official high and low records may vary slightly from our data, if they occured in-between our weather recording intervals... More about our weather records

Advertising

Nuremberg Weather History for the Previous 24 Hours

Scroll right to see more
 ConditionsComfort  
Time TempWeatherWind HumidityBarometerVisibility
7:20 am
Tue, Jan 24
12 °FIce fog.No wind85%30.30 "Hg1 mi
6:50 am10 °FIce fog.2 mph92%30.27 "Hg1 mi
6:20 am10 °FIce fog.No wind92%30.27 "Hg1 mi
5:50 am10 °FIce fog.No wind92%30.27 "Hg2 mi
5:20 am10 °FIce fog.No wind92%30.24 "Hg1 mi
4:50 am9 °FIce fog.No wind92%30.24 "Hg1 mi
4:20 am9 °FIce fog.2 mph92%30.24 "Hg2 mi
3:50 am9 °FIce fog.3 mph85%30.24 "Hg2 mi
3:20 am7 °FIce fog.2 mph85%30.24 "Hg2 mi
2:50 am7 °FIce fog.No wind92%30.24 "Hg2 mi
2:20 am7 °FIce fog.No wind85%30.24 "Hg2 mi
1:50 am7 °FIce fog.No wind92%30.24 "Hg2 mi
1:20 am7 °FIce fog.No wind85%30.24 "Hg2 mi
12:50 am9 °FIce fog.2 mph85%30.24 "Hg2 mi
12:20 am9 °FIce fog.1 mph85%30.24 "Hg2 mi
11:50 pm
Mon, Jan 23
9 °FIce fog.3 mph92%30.24 "Hg2 mi
11:20 pm9 °FIce fog.1 mph92%30.24 "Hg2 mi
10:50 pm9 °FIce fog.No wind92%30.24 "Hg2 mi
10:20 pm10 °FIce fog.1 mph92%30.24 "Hg2 mi
9:50 pm10 °FIce fog.No wind85%30.24 "Hg2 mi
9:20 pm10 °FIce fog.No wind92%30.24 "Hg2 mi
8:50 pm10 °FIce fog.No wind92%30.24 "Hg2 mi
8:20 pm14 °FIce fog.No wind92%30.24 "Hg2 mi
7:50 pm12 °FIce fog.No wind92%30.24 "Hg1 mi
7:20 pm14 °FIce fog.No wind92%30.24 "Hg1 mi
6:50 pm14 °FCold.No wind92%30.24 "HgN/A
6:20 pm18 °FIce fog.No wind86%30.21 "Hg2 mi
5:50 pm18 °FIce fog.No wind86%30.21 "Hg2 mi
5:20 pm19 °FIce fog.No wind79%30.21 "Hg2 mi
4:50 pm19 °FHaze.No wind79%30.21 "Hg3 mi
4:20 pm21 °FHaze.1 mph74%30.21 "Hg3 mi
3:50 pm23 °FHaze.1 mph68%30.21 "Hg3 mi
3:20 pm23 °FHaze.1 mph68%30.21 "Hg3 mi
2:50 pm23 °FHaze.2 mph68%30.21 "Hg3 mi
2:20 pm21 °FHaze.6 mph80%30.21 "Hg2 mi
1:50 pm21 °FHaze.3 mph74%30.21 "Hg2 mi
1:20 pm21 °FHaze.2 mph74%30.24 "Hg2 mi
12:50 pm19 °FHaze.2 mph73%30.24 "Hg2 mi
12:20 pm19 °FHaze.2 mph73%30.24 "Hg2 mi
11:50 am18 °FHaze.2 mph79%30.24 "Hg2 mi
11:20 am16 °FHaze.2 mph79%30.27 "Hg2 mi
10:50 am14 °FIce fog.3 mph85%30.27 "Hg2 mi
10:20 am12 °FIce fog.3 mph85%30.27 "Hg2 mi
9:50 am12 °FIce fog.3 mph85%30.27 "Hg2 mi
9:20 am10 °FIce fog.3 mph85%30.27 "Hg2 mi
8:50 am9 °FIce fog.3 mph85%30.24 "Hg2 mi
8:20 am7 °FIce fog.6 mph92%30.24 "Hg2 mi
Weather by CustomWeather, © 2017

See weather overviewHow to use our weather pages